Location: Katwijk
(52.2000°N, 4.4170°E)
Time: 02:34:33
(UTC+02:00)

ISS - Visible Passes

Search period start: 26 May 2016 00:00
Search period end: 05 June 2016 00:00
Orbit: 402 x 404 km, 51.6° (Epoch: 25 May)

Date Brightness Start Highest point End Pass type
(mag) Time Alt. Az. Time Alt. Az. Time Alt. Az.
26 May -3.4 01:25:55 27° WSW 01:27:27 62° SSE 01:30:42 10° E visible
26 May -3.5 03:00:34 10° W 03:03:51 81° S 03:07:07 10° E visible
26 May -2.8 04:37:03 10° W 04:40:07 38° SSW 04:43:11 10° SE visible
26 May -1.5 22:57:13 10° S 22:58:54 13° SE 23:00:36 10° ESE visible
27 May -3.1 00:31:37 10° SW 00:34:46 46° SSE 00:37:56 10° E visible
27 May -3.5 02:07:49 10° W 02:11:06 83° S 02:14:23 10° E visible
27 May -3.2 03:44:16 10° W 03:47:28 53° SSW 03:50:40 10° ESE visible
27 May -2.7 23:39:09 10° SW 23:42:07 33° SSE 23:45:07 10° E visible
28 May -3.5 01:15:05 10° WSW 01:18:21 78° S 01:21:38 10° E visible
28 May -3.5 02:51:30 10° W 02:54:46 68° SSW 02:58:01 10° ESE visible
28 May -2.2 04:28:10 10° W 04:30:52 24° SSW 04:33:34 10° SSE visible
28 May -2.1 22:46:52 10° SSW 22:49:32 23° SSE 22:52:12 10° E visible
29 May -3.4 00:22:23 10° WSW 00:25:38 66° SSE 00:28:52 10° E visible
29 May -3.5 01:58:45 10° W 02:02:02 79° S 02:05:18 10° E visible
29 May -2.7 03:35:15 10° W 03:38:16 34° SSW 03:41:16 10° SE visible
29 May -3.2 23:29:44 10° WSW 23:32:55 51° SSE 23:36:07 10° E visible
30 May -3.5 01:06:00 10° W 01:09:17 83° S 01:12:33 10° E visible
30 May -3.2 02:42:27 10° W 02:45:37 48° SSW 02:48:47 10° SE visible
30 May -1.6 04:19:42 10° WSW 04:21:30 14° SW 04:23:19 10° S visible
30 May -2.8 22:37:12 10° SW 22:40:15 37° SSE 22:43:19 10° E visible
31 May -3.5 00:13:14 10° W 00:16:31 80° S 00:19:48 10° E visible
31 May -3.4 01:49:40 10° W 01:52:55 63° SSW 01:56:09 10° ESE visible
31 May -2.0 03:26:25 10° W 03:28:44 21° SW 03:28:44 21° SW visible
31 May -3.4 23:20:31 10° WSW 23:23:47 70° SSE 23:27:03 10° E visible
01 Jun -3.5 00:56:54 10° W 01:00:11 76° S 01:03:28 10° ESE visible
01 Jun -2.4 02:33:27 10° W 02:36:00 30° SW 02:36:00 30° SW visible
02 Jun -3.4 00:04:09 10° W 00:07:26 83° S 00:10:43 10° E visible
02 Jun -3.0 01:40:36 10° W 01:43:44 44° SSW 01:44:14 40° S visible
02 Jun -3.4 23:11:23 10° W 23:14:40 82° S 23:17:57 10° E visible
03 Jun -3.3 00:47:49 10° W 00:51:03 59° SSW 00:52:46 24° SE visible
03 Jun -1.1 02:24:40 10° W 02:25:20 13° WSW 02:25:20 13° WSW visible
03 Jun -3.4 23:55:03 10° W 23:58:19 73° S 00:01:27 11° ESE visible
04 Jun -2.2 01:31:38 10° W 01:34:02 27° SW 01:34:02 27° SW visible
04 Jun -3.4 23:02:17 10° W 23:05:33 82° S 23:08:51 10° E visible
